FW8741 Weather Reports


Display with metric or nautical units.
time (UTC)temp
F
wind
direction
speed
MPH
gust
MPH
rain 1hr
in
rain 24hr
in
rain mn
in
humidity
%
barometer
mb
20260506181550 0 0.0 0.0 0.00 0.01 0.01 1007.9
20260506180051 0 0.0 0.0 0.00 0.01 0.01 1007.8
20260506174549 0 0.0 0.0 0.00 0.01 0.01 1007.9
20260506173104 0 0.0 0.0 0.00 0.01 0.01 1008.0
20260506171555 0 0.0 0.0 0.00 0.01 0.01 1008.0
20260506170050 0 0.0 0.0 0.00 0.01 0.01 1008.0
20260506164549 0 0.0 0.0 0.00 0.01 0.01 1008.2
20260506163101 0 0.0 0.0 0.00 0.01 0.01 1008.0
20260506161554 0 0.0 0.0 0.00 0.01 0.01 1008.0
20260506160044 0 0.0 0.0 0.01 0.01 0.01 1008.7
20260506154600 0 0.0 0.0 0.01 0.01 0.01 1009.0
20260506153047 62 0.0 2.0 0.01 0.01 0.01 90 1008.9
20260506151552 62 1 0.0 2.0 0.01 0.01 0.01 90 1008.8
20260506150043 0 0.0 0.0 0.00 0.00 0.00 1008.8
20260506144549 0 0.0 0.0 0.00 0.00 0.00 1009.0
20260506143046 0 0.0 0.0 0.00 0.00 0.00 1009.2
20260506141555 0 0.0 0.0 0.00 0.00 0.00 1009.0
20260506140059 0 0.0 0.0 0.00 0.00 0.00 1008.9
20260506134544 0 0.0 0.0 0.00 0.00 0.00 1009.0
20260506133047 0 0.0 0.0 0.00 0.00 0.00 1009.1
20260506131543 0 0.0 0.0 0.00 0.00 0.00 1009.2
20260506130043 0 0.0 0.0 0.00 0.00 0.00 1009.1
20260506124542 0 0.0 0.0 0.00 0.00 0.00 1009.1
20260506123050 0 0.0 0.0 0.00 0.00 0.00 1009.0
20260506121548 0 0.0 0.0 0.00 0.00 0.00 1009.0
20260506120108 0 0.0 0.0 0.00 0.00 0.00 1009.0
20260506114608 0 0.0 0.0 0.00 0.00 0.00 1009.1
20260506113051 0 0.0 0.0 0.00 0.00 0.00 1009.1
20260506111551 0 0.0 0.0 0.00 0.00 0.00 1009.2
20260506110047 0 0.0 0.0 0.00 0.00 0.00 1008.8
20260506104547 0 0.0 0.0 0.00 0.00 0.00 1008.7
20260506103042 0 311 1.0 6.0 0.00 0.00 0.00 1008.6
20260506101541 64 262 0.0 3.0 0.00 0.00 0.00 77 1008.5
20260506100041 64 268 0.0 3.0 0.00 0.00 0.00 76 1008.8
20260506094546 64 278 1.0 3.0 0.00 0.01 0.00 76 1008.5
20260506093107 64 0 0.0 5.0 0.00 0.01 0.00 75 1008.6
20260506091549 64 310 0.0 2.0 0.00 0.01 0.00 75 1008.5
20260506090042 65 0 1.0 5.0 0.00 0.01 0.00 74 1008.7
20260506084551 64 244 0.0 2.0 0.00 0.01 0.00 73 1008.7
20260506083045 65 261 1.0 5.0 0.00 0.01 0.00 72 1008.8
20260506081549 64 0 0.0 3.0 0.00 0.01 0.00 71 1008.8
20260506073040 65 74 1.0 5.0 0.00 0.01 0.00 68 1008.9
20260506071544 66 127 0.0 5.0 0.00 0.01 0.00 67 1009.0
20260506061554 66 231 1.0 4.0 0.00 0.01 0.00 65 1009.5
20260506044547 67 332 1.0 5.0 0.00 0.01 0.00 64 1009.8
20260506043048 67 0 0.0 7.0 0.00 0.01 0.00 62 1009.9
20260506041559 68 0 1.0 3.0 0.00 0.01 0.00 60 1009.8
20260506040049 68 272 1.0 4.0 0.00 0.01 0.00 58 1009.8
20260506034540 69 0 1.0 5.0 0.00 0.01 0.01 56 1009.9
20260506033128 69 0 0.0 5.0 0.00 0.01 0.01 55 1009.7
20260506031544 70 327 0.0 9.0 0.00 0.01 0.01 53 1009.7
20260506030040 71 263 0.0 10.0 0.00 0.01 0.01 52 1009.6
20260506024545 71 271 1.0 3.0 0.00 0.01 0.01 52 1009.6
20260506023053 71 271 2.0 5.0 0.00 0.01 0.01 51 1009.7
20260506021547 71 271 1.0 5.0 0.00 0.01 0.01 51 1009.6
20260506020110 71 274 1.0 4.0 0.00 0.01 0.01 51 1009.5
20260506014540 72 291 1.0 9.0 0.00 0.01 0.01 50 1009.4
20260506013043 72 175 1.0 6.0 0.00 0.01 0.01 49 1009.2
20260506011549 72 262 1.0 4.0 0.00 0.01 0.01 47 1009.1
20260506010045 73 126 0.0 4.0 0.00 0.01 0.01 45 1008.9
20260506004551 74 2 0.0 7.0 0.00 0.01 0.01 44 1008.9
20260506003041 74 122 1.0 5.0 0.00 0.01 0.01 43 1008.6
20260506001554 75 0 1.0 7.0 0.00 0.01 0.01 41 1008.6
20260506000113 75 294 2.0 9.0 0.00 0.01 0.01 41 1008.4
20260505234548 76 209 2.0 6.0 0.00 0.01 0.01 41 1008.3
20260505233054 76 288 1.0 5.0 0.00 0.01 0.01 42 1008.2
20260505231556 76 302 2.0 7.0 0.00 0.01 0.01 41 1008.1
20260505230051 77 257 1.0 6.0 0.00 0.01 0.01 41 1007.9
20260505224551 77 259 1.0 10.0 0.00 0.01 0.01 40 1008.0
20260505223051 77 265 3.0 12.0 0.00 0.01 0.01 42 1007.8
20260505221548 77 262 2.0 8.0 0.00 0.01 0.01 40 1007.7
20260505220053 78 273 2.0 11.0 0.00 0.01 0.01 39 1007.6
20260505214554 79 228 5.0 15.0 0.00 0.01 0.01 38 1007.7
20260505213045 80 311 5.0 11.0 0.00 0.01 0.01 38 1007.5
20260505211623 81 236 4.0 17.0 0.00 0.01 0.01 37 1007.5
20260505210051 81 218 2.0 17.0 0.00 0.01 0.01 37 1007.3
20260505204559 82 257 3.0 12.0 0.00 0.01 0.01 36 1007.2
20260505203048 82 207 4.0 10.0 0.00 0.01 0.01 36 1007.5
20260505201543 82 141 4.0 20.0 0.00 0.01 0.01 34 1007.2
20260505200041 82 291 3.0 10.0 0.00 0.01 0.01 33 1007.4
20260505194548 82 75 4.0 13.0 0.00 0.01 0.01 35 1007.5
20260505193040 83 294 2.0 10.0 0.00 0.01 0.01 33 1007.7
20260505191547 83 224 3.0 7.0 0.00 0.01 0.01 35 1007.6
20260505190044 82 148 3.0 11.0 0.00 0.01 0.01 36 1007.9
20260505184548 81 235 5.0 13.0 0.00 0.01 0.01 35 1008.0
20260505183041 80 275 4.0 11.0 0.00 0.01 0.01 38 1008.1